Location: Cape Cod Imaging Station
(41.7417°N, 70.1583°W)
Time: 22:52:49
(UTC-05:00)

Tiangong 2 - Visible Passes

Search period start: 18 February 2018 00:00
Search period end: 28 February 2018 00:00
Orbit: 384 x 388 km, 42.8° (Epoch: 18 February)

Date Brightness Start Highest point End Pass type
(mag) Time Alt. Az. Time Alt. Az. Time Alt. Az.
18 Feb 1.0 18:45:30 10° W 18:48:41 85° SSW 18:49:08 62° ESE visible
19 Feb 1.1 17:46:32 10° W 17:49:44 78° N 17:52:54 10° E visible
19 Feb 3.0 19:23:26 10° W 19:25:23 28° WSW 19:25:23 28° WSW visible
20 Feb 1.5 18:24:24 10° W 18:27:32 59° SSW 18:29:24 21° SE visible
21 Feb 3.0 19:02:32 10° W 19:05:08 23° SSW 19:05:48 21° S visible
22 Feb 2.4 18:03:20 10° W 18:06:18 37° SSW 18:09:15 10° SE visible
23 Feb 3.9 18:42:04 10° WSW 18:43:44 14° SW 18:45:25 10° S visible
